• In Latvia
  • List of Countries
  • For 7 days
  • Water Temperature
  • Satellite Maps
  • Weather Map
  • Weather Widgets
  • user-avatar
    Login

    Hourly Weather Andora

    Today, 30 April, Sunday

    Time Temperature Precipitation Wind Pressure Humidity
    00:00 +1°C° 0 mm 2 mps 619 mmHg 92%
    01:00 -1°C° 0 mm 2 mps 618 mmHg 92%
    02:00 -1°C° 0 mm 2 mps 618 mmHg 92%
    03:00 -1°C° 0 mm 2 mps 618 mmHg 92%
    04:00 -1°C° 0 mm 2 mps 618 mmHg 89%
    05:00 +1°C° 0 mm 2 mps 618 mmHg 87%
    06:00 +2°C° 0 mm 2 mps 618 mmHg 85%
    07:00 +3°C° 0 mm 3 mps 619 mmHg 78%
    08:00 +4°C° 0 mm 3 mps 619 mmHg 71%
    09:00 +7°C° 0 mm 3 mps 620 mmHg 64%
    10:00 +8°C° 0 mm 3 mps 620 mmHg 59%
    11:00 +8°C° 0 mm 4 mps 620 mmHg 54%
    12:00 +11°C° 0 mm 4 mps 620 mmHg 48%
    13:00 +10°C° 0.4 mm 4 mps 619 mmHg 56%
    14:00 +8°C° 0.4 mm 4 mps 619 mmHg 64%
    15:00 +7°C° 0.4 mm 4 mps 618 mmHg 72%
    16:00 +5°C° 0.5 mm 3 mps 618 mmHg 79%
    17:00 +4°C° 0.5 mm 3 mps 618 mmHg 85%
    18:00 +2°C° 0.5 mm 3 mps 618 mmHg 92%
    19:00 +2°C° 0.4 mm 2 mps 618 mmHg 93%
    20:00 +1°C° 0.4 mm 2 mps 619 mmHg 94%
    21:00 +2°C° 0.4 mm 1 mps 619 mmHg 95%
    22:00 +1°C° 0.2 mm 1 mps 619 mmHg 94%
    23:00 0°C° 0.2 mm 1 mps 619 mmHg 93%

    Tomorrow, 1 May, Monday

    Time Temperature Precipitation Wind Pressure Humidity
    00:00 -1°C° 0.2 mm 1 mps 619 mmHg 92%
    01:00 -1°C° 0.1 mm 1 mps 619 mmHg 92%
    02:00 -1°C° 0.1 mm 1 mps 620 mmHg 92%
    03:00 -2°C° 0.1 mm 1 mps 620 mmHg 93%
    04:00 -2°C° 0 mm 1 mps 620 mmHg 90%
    05:00 -1°C° 0 mm 1 mps 621 mmHg 88%
    06:00 -3°C° 0 mm 2 mps 621 mmHg 85%
    07:00 -1°C° 0 mm 2 mps 622 mmHg 76%
    08:00 +2°C° 0 mm 2 mps 624 mmHg 68%
    09:00 +4°C° 0 mm 2 mps 625 mmHg 59%
    10:00 +5°C° 0 mm 2 mps 625 mmHg 56%
    11:00 +6°C° 0 mm 2 mps 625 mmHg 53%
    12:00 +7°C° 0 mm 2 mps 626 mmHg 51%
    13:00 +6°C° 0.1 mm 2 mps 625 mmHg 53%
    14:00 +6°C° 0.1 mm 2 mps 625 mmHg 56%
    15:00 +6°C° 0.1 mm 2 mps 625 mmHg 59%
    16:00 +5°C° 0 mm 2 mps 625 mmHg 63%
    17:00 +5°C° 0 mm 2 mps 625 mmHg 67%
    18:00 +5°C° 0 mm 1 mps 625 mmHg 71%
    19:00 +3°C° 0 mm 1 mps 624 mmHg 77%
    20:00 +2°C° 0 mm 1 mps 624 mmHg 84%
    21:00 0°C° 0 mm 1 mps 624 mmHg 91%
    22:00 0°C° 0 mm 1 mps 624 mmHg 91%
    23:00 0°C° 0 mm 1 mps 623 mmHg 91%

    Day after tomorrow, 2 May, Tuesday

    Time Temperature Precipitation Wind Pressure Humidity
    00:00 -1°C° 0 mm 1 mps 623 mmHg 91%
    01:00 -1°C° 0 mm 1 mps 623 mmHg 91%
    02:00 -1°C° 0 mm 1 mps 623 mmHg 91%
    03:00 -1°C° 0 mm 1 mps 623 mmHg 91%
    04:00 0°C° 0 mm 1 mps 623 mmHg 87%
    05:00 +2°C° 0 mm 1 mps 623 mmHg 84%
    06:00 +3°C° 0 mm 1 mps 624 mmHg 81%
    07:00 +5°C° 0.1 mm 1 mps 624 mmHg 74%
    08:00 +7°C° 0.1 mm 1 mps 625 mmHg 67%
    09:00 +8°C° 0.1 mm 1 mps 626 mmHg 60%
    10:00 +8°C° 0.3 mm 2 mps 626 mmHg 62%
    11:00 +8°C° 0.3 mm 2 mps 626 mmHg 63%
    12:00 +9°C° 0.3 mm 3 mps 626 mmHg 65%
    13:00 +8°C° 1.1 mm 3 mps 626 mmHg 70%
    14:00 +8°C° 1.1 mm 3 mps 625 mmHg 74%
    15:00 +7°C° 1.1 mm 3 mps 625 mmHg 79%
    16:00 +6°C° 1 mm 2 mps 625 mmHg 82%
    17:00 +7°C° 1 mm 1 mps 624 mmHg 86%
    18:00 +6°C° 1 mm 1 mps 624 mmHg 89%
    19:00 +5°C° 0.2 mm 1 mps 624 mmHg 92%
    20:00 +4°C° 0.2 mm 1 mps 624 mmHg 94%
    21:00 +3°C° 0.2 mm 1 mps 624 mmHg 96%
    22:00 +3°C° 0.1 mm 1 mps 624 mmHg 96%
    23:00 +2°C° 0.1 mm 1 mps 624 mmHg 96%

    3 May, Wednesday

    Time Temperature Precipitation Wind Pressure Humidity
    00:00 +2°C° 0.1 mm 1 mps 623 mmHg 96%
    01:00 +2°C° 0 mm 1 mps 623 mmHg 96%
    02:00 +1°C° 0 mm 1 mps 623 mmHg 97%
    03:00 0°C° 0 mm 0 mps 622 mmHg 97%
    04:00 +1°C° 0 mm 0 mps 623 mmHg 96%
    05:00 +2°C° 0 mm 0 mps 623 mmHg 95%
    06:00 +3°C° 0 mm 0 mps 624 mmHg 94%
    07:00 +5°C° 0 mm 1 mps 624 mmHg 87%
    08:00 +7°C° 0 mm 1 mps 625 mmHg 81%
    09:00 +8°C° 0 mm 1 mps 626 mmHg 75%
    10:00 +9°C° 0.1 mm 1 mps 626 mmHg 71%
    11:00 +10°C° 0.1 mm 1 mps 626 mmHg 68%
    12:00 +9°C° 0.1 mm 2 mps 626 mmHg 65%
    13:00 +10°C° 0.1 mm 2 mps 626 mmHg 63%
    14:00 +10°C° 0.1 mm 2 mps 626 mmHg 62%
    15:00 +10°C° 0.1 mm 2 mps 625 mmHg 61%
    16:00 +11°C° 0.1 mm 1 mps 625 mmHg 66%
    17:00 +10°C° 0.1 mm 1 mps 625 mmHg 71%
    18:00 +9°C° 0.1 mm 1 mps 624 mmHg 77%
    19:00 +7°C° 0 mm 1 mps 623 mmHg 82%
    20:00 +4°C° 0 mm 1 mps 623 mmHg 88%
    21:00 +2°C° 0 mm 1 mps 622 mmHg 93%
    22:00 +2°C° 0 mm 1 mps 622 mmHg 94%
    23:00 +2°C° 0 mm 1 mps 622 mmHg 94%

    4 May, Thursday

    Time Temperature Precipitation Wind Pressure Humidity
    00:00 +2°C° 0 mm 1 mps 621 mmHg 94%
    01:00 +2°C° 0 mm 1 mps 621 mmHg 95%
    02:00 +1°C° 0 mm 1 mps 621 mmHg 95%
    03:00 0°C° 0 mm 0 mps 620 mmHg 95%
    04:00 +3°C° 0 mm 1 mps 621 mmHg 93%
    05:00 +4°C° 0 mm 1 mps 621 mmHg 91%
    06:00 +5°C° 0 mm 1 mps 622 mmHg 89%
    07:00 +7°C° 0 mm 1 mps 623 mmHg 80%
    08:00 +9°C° 0 mm 1 mps 623 mmHg 71%
    09:00 +11°C° 0 mm 1 mps 624 mmHg 62%
    10:00 +12°C° 0 mm 1 mps 624 mmHg 60%
    11:00 +13°C° 0 mm 1 mps 624 mmHg 58%
    12:00 +13°C° 0 mm 2 mps 624 mmHg 55%
    13:00 +13°C° 0 mm 2 mps 624 mmHg 58%
    14:00 +13°C° 0 mm 2 mps 624 mmHg 60%
    15:00 +13°C° 0 mm 2 mps 623 mmHg 62%
    16:00 +12°C° 0 mm 2 mps 623 mmHg 67%
    17:00 +11°C° 0 mm 1 mps 623 mmHg 72%
    18:00 +10°C° 0 mm 1 mps 622 mmHg 77%
    19:00 +9°C° 0 mm 1 mps 622 mmHg 83%
    20:00 +7°C° 0 mm 1 mps 622 mmHg 89%
    21:00 +5°C° 0 mm 1 mps 621 mmHg 94%
    22:00 +6°C° 0 mm 1 mps 621 mmHg 94%
    23:00 +6°C° 0 mm 1 mps 621 mmHg 94%

    5 May, Friday

    Time Temperature Precipitation Wind Pressure Humidity
    00:00 +6°C° 0 mm 1 mps 621 mmHg 93%
    01:00 +6°C° 0 mm 1 mps 621 mmHg 93%
    02:00 +6°C° 0 mm 1 mps 621 mmHg 93%
    03:00 +5°C° 0 mm 1 mps 620 mmHg 93%
    04:00 +5°C° 0 mm 2 mps 620 mmHg 90%
    05:00 +6°C° 0 mm 2 mps 621 mmHg 87%
    06:00 +7°C° 0 mm 2 mps 621 mmHg 85%
    07:00 +9°C° 0 mm 2 mps 622 mmHg 75%
    08:00 +12°C° 0 mm 2 mps 623 mmHg 65%
    09:00 +13°C° 0 mm 3 mps 624 mmHg 55%
    10:00 +14°C° 0 mm 3 mps 624 mmHg 51%
    11:00 +16°C° 0 mm 3 mps 624 mmHg 48%
    12:00 +17°C° 0 mm 4 mps 625 mmHg 44%
    13:00 +16°C° 0 mm 3 mps 624 mmHg 47%
    14:00 +16°C° 0 mm 3 mps 624 mmHg 49%
    15:00 +14°C° 0 mm 3 mps 623 mmHg 52%
    16:00 +13°C° 0 mm 3 mps 623 mmHg 58%
    17:00 +11°C° 0 mm 3 mps 622 mmHg 63%
    18:00 +10°C° 0 mm 2 mps 622 mmHg 69%
    19:00 +9°C° 0 mm 2 mps 621 mmHg 71%
    20:00 +8°C° 0 mm 2 mps 621 mmHg 73%
    21:00 +7°C° 0 mm 2 mps 621 mmHg 76%
    22:00 +7°C° 0.1 mm 2 mps 621 mmHg 75%
    23:00 +7°C° 0.1 mm 2 mps 621 mmHg 74%
    Show more